Location: Ansan
(43.6898°N, 0.7731°E)
Time: 20:57:54
(UTC+00:00)

Cosmos 1933 - Pass Details

Date: 15 May 2026
Orbit: 508 x 512 km, 82.5° (Epoch: 7 June)

Event Time Altitude Azimuth Distance (km) Brightness Sun altitude
Exits shadow 21:19:27 22° 204° (SSW) 1,159 4.7 -18.1°
Maximum altitude 21:21:45 62° 280° (W) 582 3.6 -18.3°
Drops below altitude 10° 21:25:33 10° 2° (N) 1,743 6.6 -18.7°
Sets 21:27:42 0° 5° (N) 2,635 7.6 -19.0°
